This is the latest recevied weather packets stored in our database for station/object KI6SYE. If no packets are shown the sender has not sent any weather packets the latest 10 day(s).
| Time | Temp. | Humidity | Pressure | Rain* | Wind** | Luminosity | Snow |
|---|---|---|---|---|---|---|---|
| 1788630478 | 22.78° C | 77% | 1014.2 hPa | 0 mm | - | 621 W/m² | - |
| 1788630173 | 22.78° C | 78% | 1014.3 hPa | 0 mm | - | 610 W/m² | - |
| 1788629869 | 22.78° C | 78% | 1014.4 hPa | 0 mm | - | 601 W/m² | - |
| 1788629565 | 23.33° C | 77% | 1014.2 hPa | 0 mm | - | 591 W/m² | - |
| 1788629264 | 22.78° C | 77% | 1014.2 hPa | 0 mm | - | 579 W/m² | - |
| 1788628963 | 22.78° C | 78% | 1014.3 hPa | 0 mm | - | 566 W/m² | - |
| 1788628660 | 22.78° C | 78% | 1014.1 hPa | 0 mm | - | 556 W/m² | - |
| 1788628356 | 22.78° C | 77% | 1014.4 hPa | 0 mm | - | 544 W/m² | - |
| 1788628052 | 23.33° C | 77% | 1014.2 hPa | 0 mm | - | 527 W/m² | - |
| 1788627747 | 23.33° C | 75% | 1014.1 hPa | 0 mm | - | 519 W/m² | - |
| 1788627441 | 24.44° C | 73% | 1014.1 hPa | 0 mm | - | 506 W/m² | - |
| 1788627136 | 25° C | 72% | 1013.9 hPa | 0 mm | - | 490 W/m² | - |
| 1788626830 | 24.44° C | 68% | 1014.2 hPa | 0 mm | - | 477 W/m² | - |
| 1788626525 | 23.33° C | 71% | 1014 hPa | 0 mm | - | 466 W/m² | - |
| 1788626221 | 23.89° C | 71% | 1014.1 hPa | 0 mm | - | 447 W/m² | - |
| 1788625917 | 24.44° C | 71% | 1014.2 hPa | 0 mm | - | 435 W/m² | - |
| 1788625613 | 23.89° C | 72% | 1013.7 hPa | 0 mm | - | 418 W/m² | - |
| 1788625313 | 23.33° C | 74% | 1013.9 hPa | 0 mm | - | 403 W/m² | - |
| 1788625007 | 23.33° C | 75% | 1013.8 hPa | 0 mm | - | 389 W/m² | - |
| 1788624704 | 23.89° C | 76% | 1014 hPa | 0 mm | - | 374 W/m² | - |
| 1788624399 | 22.78° C | 79% | 1013.9 hPa | 0 mm | - | 356 W/m² | - |
| 1788624092 | 21.67° C | 81% | 1013.9 hPa | 0 mm | - | 335 W/m² | - |
| 1788623787 | 21.11° C | 82% | 1014.1 hPa | 0 mm | - | 316 W/m² | - |
| 1788623485 | 21.11° C | 83% | 1014 hPa | 0 mm | - | 304 W/m² | - |
| 1788623180 | 21.11° C | 84% | 1014.2 hPa | 0 mm | - | 284 W/m² | - |
* Rain latest hour (hover to see other rain measurements)
** Current wind speed in m/s (hover to see current wind gust speed)